Regional Weather Roundup
Issued by NWS

Home | Current Version | Previous Version | Graphics & Text | Print | Product List | Glossary On
Versions: 1 2 3 4 5 6 7 8 9 10 11 12 13 14 15 16 17 18 19 20 21 22 23 24 25 26 27 28 29 30 31 32 33 34 35 36 37 38 39 40 41 42 43 44 45 46 47 48 49 50
000
ASUS43 KOAX 251410
RWRNE

WEATHER ROUNDUP FOR NEBRASKA
NATIONAL WEATHER SERVICE OMAHA NE
900 AM CDT MON MAY 25 2015

NOTES: SATELLITE DATA IS BEING USED TO AUGMENT CLOUD COVER ABOVE
       12000 FEET.
       "FAIR" INDICATES FEW OR NO CLOUDS BELOW 12,000 FEET WITH NO
       SIGNIFICANT WEATHER AND/OR OBSTRUCTIONS TO VISIBILITY.

  * THESE STATIONS DO NOT REPORT WEATHER SUCH AS RAIN...SNOW OR FOG.

NEZ001>004-019>022-054>056-251500-
NEBRASKA PANHANDLE

CITY           SKY/WX    TMP DP  RH WIND       PRES   REMARKS
SCOTTSBLUFF    LGT RAIN  50  49  96 W13       29.84S
ALLIANCE       LGT RAIN  50  49  96 NW7       29.80S FOG
CHADRON        LGT RAIN  52  50  93 NE13      29.83R
KIMBALL          N/A    N/A N/A N/A MISG        N/A
SIDNEY         LGT RAIN  49  47  93 NW13      29.85S
$$

NEZ057>060-069>072-079>082-251500-
SOUTHWEST NEBRASKA

CITY           SKY/WX    TMP DP  RH WIND       PRES   REMARKS
NORTH PLATTE   PTSUNNY   56  52  86 W6        29.81R
IMPERIAL       PTSUNNY   55  50  83 W6        29.82R
LEXINGTON      MOSUNNY   60  55  82 SW3       29.80R
MCCOOK         MOSUNNY   59  53  80 SW5       29.81R
OGALLALA       CLOUDY    53  52  95 SW3       29.81R
$$

NEZ005>010-023>029-035>040-094-251500-
NORTH CENTRAL NEBRASKA

CITY           SKY/WX    TMP DP  RH WIND       PRES   REMARKS
VALENTINE      CLOUDY    57  56  96 NE8       29.78R
AINSWORTH      CLOUDY    57  57 100 NE8       29.77S
BROKEN BOW     PTSUNNY   59  53  80 SW10      29.78S
O`NEILL        CLOUDY    59  59  99 E6        29.79R FOG
ORD            PTSUNNY   59  55  87 NW6       29.76F
THEDFORD       LGT RAIN  55  53  95 SW5       29.78F
$$

NEZ041-046>049-061>064-073>077-083>087-251500-
SOUTH CENTRAL NEBRASKA

CITY           SKY/WX    TMP DP  RH WIND       PRES   REMARKS
GRAND ISLAND   CLOUDY    61  53  75 W12       29.80R
AURORA         CLOUDY    61  57  84 SW9       29.80S
HASTINGS       MOSUNNY   60  53  77 W9        29.81R
HEBRON         PTSUNNY   60  55  82 SW8       29.84R
HOLDREGE       SUNNY     60  54  79 SW3       29.81R
KEARNEY *      MOSUNNY   59  52  77 SW7       29.81R
YORK           CLOUDY    61  57  88 SW10      29.81R
$$

NEZ011>018-030>034-042>045-251500-
NORTHEAST NEBRASKA

CITY           SKY/WX    TMP DP  RH WIND       PRES   REMARKS
NORFOLK        CLOUDY    62  62 100 SE6       29.78S FOG
ALBION         CLOUDY    60  58  94 S6        29.78F
BLAIR          PTSUNNY   66  58  76 S7        29.79S
COLUMBUS *     PTSUNNY   61  52  72 S10       29.82S
FREMONT        PTSUNNY   64  59  84 SW7       29.81R
TEKAMAH        CLOUDY    67  63  87 SW9       29.78S
WAYNE          CLOUDY    60  60  99 S5        29.80R
$$

NEZ050>053-065>068-078-088>093-251500-
SOUTHEAST NEBRASKA

CITY           SKY/WX    TMP DP  RH WIND       PRES   REMARKS
LINCOLN        CLOUDY    63  58  83 W3        29.83R
OMAHA EPPLEY   PTSUNNY   65  59  81 S9        29.79F
BEATRICE       CLOUDY    63  58  83 S8        29.81R
FALLS CITY     CLOUDY    63  58  83 S15G25    29.80R
NEBRASKA CITY  CLOUDY    63  61  94 S5        29.81R
PLATTSMOUTH    PTSUNNY   64  59  82 S6        29.81R
$$

NEZ044-045-051>053-067-251500-
OMAHA AREA

CITY           SKY/WX    TMP DP  RH WIND       PRES   REMARKS
OMAHA EPPLEY   PTSUNNY   65  59  81 S9        29.79F
BLAIR          PTSUNNY   66  58  76 S7        29.79S
FREMONT        PTSUNNY   64  59  84 SW7       29.81R
MILLARD        PTSUNNY   65  59  80 CALM      29.79R
OFFUTT AFB     PTSUNNY   65  60  82 S5        29.79F
PLATTSMOUTH    PTSUNNY   64  59  82 S6        29.81R
WAHOO          LGT RAIN  64  59  85 SW10      29.82R
$$


USA.gov is the U.S. government's official web portal to all federal, state and local government web resources and services.